Regional Weather Roundup
Issued by NWS

Home | Current Version | Previous Version | Graphics & Text | Print | Product List | Glossary On
Versions: 1 2 3 4 5 6 7 8 9 10 11 12 13 14 15 16 17 18 19 20 21 22 23 24 25 26 27 28 29 30 31 32 33 34 35 36 37 38 39 40 41 42 43 44 45 46 47 48 49 50
000
ASUS43 KLOT 260008
RWRIL

ILLINOIS REGIONAL WEATHER ROUNDUP
NATIONAL WEATHER SERVICE CHICAGO/ROMEOVILLE IL
700 PM CDT MON MAY 25 2015

NOTE: "FAIR" INDICATES FEW OR NO CLOUDS BELOW 12,000 FEET WITH NO
SIGNIFICANT WEATHER AND/OR OBSTRUCTIONS TO VISIBILITY.

* THESE STATIONS ARE NOT UNDER NWS QUALITY CONTROL. THEY ALSO MAY NOT
  REPORT WEATHER SUCH AS PRECIPITATION OR FOG.

ILZ001-002-007-009-015-016-024-260100-
NORTHWEST ILLINOIS

CITY           SKY/WX    TMP DP  RH WIND       PRES   REMARKS
MOLINE         MOSUNNY   77  60  55 S13G22    29.86F
6HR MIN TEMP:  76; 6HR MAX TEMP:  80;

STERLING*      SUNNY     79  63  57 SW3       29.88F HX  80
SAVANNA*       MOSUNNY   78  60  53 SW12      29.86F
$$

ILZ003-004-008-010-011-017-018-260100-
NORTH CENTRAL ILLINOIS

CITY           SKY/WX    TMP DP  RH WIND       PRES   REMARKS
ROCKFORD       MOSUNNY   80  62  54 SW14G20   29.89F HX  81
6HR MIN TEMP:  74; 6HR MAX TEMP:  80;

FREEPORT*      SUNNY     75  60  59 SW15G22   29.89F
ROCHELLE*      SUNNY     76  62  63 SW20      29.90F
DE KALB*       MOSUNNY   74  62  65 SW14      29.92F
PERU*          SUNNY     78  59  51 SW12      29.91F HX  80
$$

ILZ005-006-012>014-019>023-260100-
NORTHEAST ILLINOIS

CITY           SKY/WX    TMP DP  RH WIND       PRES   REMARKS
CHICAGO-OHARE  PTSUNNY   77  60  55 SW13G22   29.91S
6HR MIN TEMP:  70; 6HR MAX TEMP:  78; 6HR PCP: TRACE;

CHICAGO-MIDWAY PTSUNNY   81  61  50 SW12      29.92S HX  82
6HR MIN TEMP:  73; 6HR MAX TEMP:  81;

AURORA         MOSUNNY   78  59  51 SW13      29.92F
6HR MIN TEMP:  74; 6HR MAX TEMP:  80; 6HR PCP: TRACE;

LANSING*       PTSUNNY   78  53  41 SW14      29.94R
JOLIET*        MOSUNNY   80  61  53 SW6       29.92F HX  81
WAUKEGAN       MOSUNNY   77  59  53 SW15      29.90R
6HR MIN TEMP:  71; 6HR MAX TEMP:  78; 6HR PCP: TRACE;

DUPAGE AIRPORT MOSUNNY   77  60  55 SW14      29.91F
6HR MIN TEMP:  69; 6HR MAX TEMP:  79; 6HR PCP: TRACE;

KANKAKEE*      PTSUNNY   79  59  49 SW14G20   29.94F HX  80
WHEELING       MOSUNNY   78  59  51 S15       29.92S
6HR MIN TEMP:  72; 6HR MAX TEMP:  79;

MORRIS*        MOSUNNY   78  60  53 SW13      29.91F HX  80
ROMEOVILLE*    MOSUNNY   77  59  53 SW10      29.92F
NORTHERLY ISL    N/A     79  56  45 S8          N/A  HX  80
$$

LMZ740>746-260100-
SOUTHERN LAKE MICHIGAN

STATION/POSITION SKY/WX   TEMP    WIND        PRES    VSBY  WAVE
                          AIR SEA DIR/SP/G                  HT/PER
                          (F)     (DEG/KT/KT) (MB)    (MI)  (FT/S)
SOUTHERN BUOY              48 38  200/ 10/ 12 1013.0S         1/ 4
HARRISON CRIB              76     210/ 22/ 25   N/A
BURNHAM HARBOR             79     200/  8/ 14   N/A
CALUMET HARBOR             79     220/ 11/ 18   N/A
BURNS HARBOR               78     230/ 15/ 20 1014.2S
MICHIGAN CITY              73     220/ 14/ 15   N/A
MICHIGAN CITY 6N           62 52  250/  8/ 10   N/A           1/ 3
ST. JOSEPH                 60 55  220/  6/  8   N/A           2/ 4
$$

ILZ025>027-034>036-040-047-049-050-058-095>099-260100-
WEST-CENTRAL ILLINOIS

CITY           SKY/WX    TMP DP  RH WIND       PRES   REMARKS
QUINCY         SUNNY     80  63  55 S8        29.88F HX  81
GALESBURG*     SUNNY     77  62  59 S9        29.89F
MACOMB*        SUNNY     79  62  56 S10       29.90F HX  80
JACKSONVILLE*  MOSUNNY   84  63  49 S10       29.90S HX  85
PITTSFIELD*    SUNNY     82  64  55 SE8       29.91S HX  83
$$

ILZ028>032-037-038-041>044-048-051>054-059>061-260100-
CENTRAL ILLINOIS

CITY           SKY/WX    TMP DP  RH WIND       PRES   REMARKS
PONTIAC        MOSUNNY   81  59  47 SW12      29.94F HX  82
BLOOMINGTON    MOSUNNY   80  62  54 SW10      29.95F HX  81
DECATUR        PTSUNNY   80  64  58 S13       29.95F HX  82
PEORIA         MOSUNNY   82  60  47 S12       29.90F HX  82
6HR MIN TEMP:  76; 6HR MAX TEMP:  83;

LACON*         SUNNY     79  58  48 SW7       29.90F HX  80
LINCOLN*       MOSUNNY   81  62  51 S15       29.90F HX  82
SPRINGFIELD    MOSUNNY   82  64  54 S15       29.91F HX  83
6HR MIN TEMP:  78; 6HR MAX TEMP:  85;

TAYLORVILLE    MOSUNNY   77  64  65 S10       29.95R
$$

ILZ033-039-045-046-055>057-062-063-260100-
EAST-CENTRAL ILLINOIS

CITY           SKY/WX    TMP DP  RH WIND       PRES   REMARKS
CHAMPAIGN      PTSUNNY   80  63  55 S20       29.96F HX  81
DANVILLE*      CLOUDY    77  62  58 S14G23    29.95F
RANTOUL*       PTSUNNY   81  65  57 S17G23    29.96S HX  83
MATTOON        PTSUNNY   76  64  66 S12G20    29.97F
PARIS*         CLOUDY    77  65  65 S13       30.00F
$$

ILZ079-100>102-260100-
SOUTHWEST ILLINOIS

CITY           SKY/WX    TMP DP  RH WIND       PRES   REMARKS
ALTON          PTSUNNY   79  72  78 SE10G16   29.93S HX  82
BELLEVILLE     MOSUNNY   78  69  73 SE16G24   29.93R HX  80
CAHOKIA*       MOSUNNY   80  68  66 SE10      29.92S HX  83
SPARTA*        MOSUNNY   76  68  77 SE12G21   29.96S
$$

ILZ064>066-069>071-074>076-080>082-084>086-088>090-092>094-260100-
SOUTH-CENTRAL ILLINOIS

CITY           SKY/WX    TMP DP  RH WIND       PRES   REMARKS
CARBONDALE     CLOUDY    76  67  73 SE14      29.98S
6HR MIN TEMP:  75; 6HR MAX TEMP:  79;

CAIRO*         PTSUNNY   76  69  79 SE10      30.00S
EFFINGHAM*     PTSUNNY   77  62  60 SE9       30.00S
MARION         PTSUNNY   77  68  73 S9        30.00S
MT. VERNON     PTSUNNY   75  66  73 S9        30.00S
CENTRALIA*     PTSUNNY   76  65  69 S12       29.98S
SALEM*         PTSUNNY   79  67  66 SE10      29.98S HX  81
METROPOLIS*    CLOUDY    76  69  80 SE7       30.01S
$$

ILZ067-068-072-073-078-083-087-091-260100-
SOUTHEAST ILLINOIS

CITY           SKY/WX    TMP DP  RH WIND       PRES   REMARKS
LAWRENCEVILLE  PTSUNNY   75  66  73 S14       30.02F
FLORA*         PTSUNNY   76  66  71 S13       30.00S
FAIRFIELD*     CLOUDY    75  67  76 SE14      30.00R
HARRISBURG*    CLOUDY    74  68  82 S10       30.02S
ROBINSON*      PTSUNNY   76  65  69 S9G16     30.02F
CARMI*         PTSUNNY   73  63  68 SE12      30.01F
$$

ABBREVIATIONS USED IN REMARKS
   TC - TEMPERATURE IN CELSIUS
  WCI - WIND CHILL INDEX
   HX - HEAT INDEX
  VSB - VISIBILITY
$$




USA.gov is the U.S. government's official web portal to all federal, state and local government web resources and services.